Probability
0 0 0 0 0 0 0 0 0 0 0 0 0 0 0 0 0 0 0 0 0 0 0 0 0 0 0 0 0 0 0 0 0 0 0 0 0 0 0 0 0 0 0 0
0 0 0 0 0 0 0 0 0 0 0 0 0 0 0 0 0 0 0 0 0 0 0 0 0 0 0 0 0 0 0 0 0 0 0 0 0 0 0 0 0 0 0 0
0 0 0 0 0 0 0 0 0 0 0 0 0 0 0 0 0 0 0 0 0 0 0 0 0 0 0 0 0 0 0 0 0 0 0 0 0 0 0 0 0 0 0 0
0 0 0 0 0 0 0 0 0 0 0 0 0 0 0 0 0 0 0 0 0 0 0 0 0 0 0 0 0 0 0 0 0 0 0 0 0 0 0 0 0 0 0 0
0 0 0 0 0 0 0 0 0 0 0 0 0 0 0 0 0 0 0 0 0 0 0 0 0 0 0 0 0 0 0 0 0 0 0 0 0 0 0 0 0 0 0 0
0 0 0 0 0 0 0 0 0 0 0 0 0 0 0 0 0 0 0 0 0 0 0 0 0 0 0 0 0 0 0 0 0 0 0 0 0 0 0 0 0 0 0 0
0 0 0 0 0 0 0 0 0 0 0 0 0 0 0 0 0 0 0 0 0 0 0 0 0 0 0 0 0 0 0 0 0 0 0 0 0 0 0 0 0 0 0 0
0 0 0 0 0 0 0 0 0 0 0 0 0 0 0 0 0 0 0 0 0 0 0 0 0 0 0 0 0 0 0 0 0 0 0 0 0 0 0 0 0 0 0 0
0 0 0 0 0 0 0 0 0 0 0 0 0 0 0 0 0 0 0 0 0 0 0 0 0 0 0 0 0 0 0 0 0 0 0 0 0 0 0 0 0 0 0 0
0 0 0 0 0 0 0 0 0 0 0 0 0 0 0 0 0 0 0 0 0 0 0 0 0 0 0 0 0 0 0 0 0 0 0 0 0 0 0 0 0 0 0 0
0 0 0 0 0 0 0 0 0 0 0 0 0 0 0 0 0 0 0 0 0 0 0 0 0 0 0 0 0 0 0 0 0 0 0 0 0 0 0 0 0 0 0 0
0 0 0 0 0 0 0 0 0 0 0 0 0 0 0 0 0 0 0 0 0 0 0 0 0 0 0 0 0 0 0 0 0 0 0 0 0 0 0 0 0 0 0 0
0 0 0 0 0 0 0 0 0 0 0 0 0 0 0 0 0 0 0 0 0 0 0 0 0 0 0 0 0 0 0 0 0 0 0 0 0 0 0 0 0 0 0 0
0 0 0 0 0 0 0 0 0 0 0 0 0 0 0 0 0 0 0 0 0 0 0 0 0 0 0 0 0 0 0 0 0 0 0 0 0 0 0 0 0 0 0 0
0 0 0 0 0 0 0 0 0 0 0 0 0 0 0 0 0 0 0 0 0 0 0 0 0 0 0 0 0 0 0 0 0 0 0 0 0 0 0 0 0 0 0 0
0 0 0 0 0 0 0 0 0 0 0 0 0 0 0 0 0 0 0 0 0 0 0 0 0 0 0 0 0 0 0 0 0 0 0 0 0 0 0 0 0 0 0 0
0 0 0 0 0 0 0 0 0 0 0 0 0 0 0 0 0 0 0 0 0 0 0 0 0 0 0 0 0 0 0 0 0 0 0 0 0 0 0 0 0 0 0 0
0 0 0 0 0 0 0 0 0 0 0 0 0 0 0 0 0 0 0 0 0 0 0 0 0 0 0 0 0 0 0 0 0 0 0 0 0 0 0 0 0 0 0 0
0 0 0 0 0 0 0 0 0 0 0 0 0 0 0 0 0 0 0 0 0 0 0 0 0 0 0 0 0 0 0 0 0 0 0 0 0 0 0 0 0 0 0 0
0 0 0 0 0 0 0 0 0 0 0 0 0 0 0 0 0 0 0 0 0 0 0 0 0 0 0 0 0 0 0 0 0 0 0 0 0 0 0 0 0 0 0 0
0 0 0 0 0 0 0 0 0 0 0 0 0 0 0 0 0 0 0 0 0 0 0 0 0 0 0 0 0 0 0 0 0 0 0 0 0 0 0 0 0 0 0 0
0 0 0 0 0 0 0 0 0 0 0 0 0 0 0 0 0 0 0 0 0 0 0 0 0 0 0 0 0 0 0 0 0 0 0 0 0 0 0 0 0 0 0 0
0 0 0 0 0 0 0 0 0 0 0 0 0 0 0 0 0 0 0 0 0 0 0 0 0 0 0 0 0 0 0 0 0 0 0 0 0 0 0 0 0 0 0 0
0 0 0 0 0 0 0 0 0 0 0 0 0 0 0 0 0 0 0 0 0 0 0 0 0 0 0 0 0 0 0 0 0 0 0 0 0 0 0 0 0 0 0 0
0 0 0 0 0 0 0 0 0 0 0 0 0 0 0 0 0 0 0 0 0 0 0 0 0 0 0 0 0 0 0 0 0 0 0 0 0 0 0 0 0 0 0 0
0 0 0 0 0 0 0 0 0 0 0 0 0 0 0 0 0 0 0 0 0 0 0 0 0 0 0 0 0 0 0 0 0 0 0 0 0 0 0 0 0 0 0 0
0 0 0 0 0 0 0 0 0 0 0 0 0 0 0 0 0 0 0 0 0 0 0 0 0 0 0 0 0 0 0 0 0 0 0 0 0 0 0 0 0 0 0 0
Height
5695 5693 5691 5690 5688 5686 5683 5681 5680 5679 5678 5677 5675 5674 5673 5672 5672 5671 5671 5671 5670 5670 5669 5669 5669 5669 5668 5668 5668 5668 5667 5666 5666 5665 5664 5663 5662 5660 5659 5658 5657 5655 5654 5653
5691 5689 5686 5685 5684 5681 5679 5677 5675 5674 5673 5671 5670 5669 5668 5667 5666 5666 5665 5664 5664 5663 5662 5661 5661 5660 5660 5659 5659 5658 5658 5657 5656 5655 5654 5653 5651 5649 5648 5646 5645 5644 5642 5641
5685 5683 5681 5681 5679 5676 5674 5672 5670 5668 5668 5666 5664 5663 5662 5661 5660 5659 5658 5658 5657 5656 5654 5653 5652 5651 5651 5650 5650 5649 5648 5647 5646 5645 5643 5642 5640 5638 5636 5635 5633 5632 5631 5629
5678 5678 5676 5677 5672 5670 5668 5666 5664 5662 5661 5659 5658 5657 5656 5654 5653 5652 5651 5650 5649 5647 5646 5645 5644 5643 5642 5641 5640 5639 5638 5637 5636 5634 5633 5631 5629 5627 5625 5623 5622 5620 5619 5617
5670 5669 5668 5669 5666 5663 5661 5660 5657 5655 5654 5652 5651 5650 5649 5647 5645 5644 5643 5642 5640 5639 5637 5636 5635 5633 5632 5632 5631 5630 5628 5627 5625 5624 5622 5620 5618 5616 5614 5612 5610 5608 5607 5605
5662 5660 5659 5661 5658 5654 5653 5652 5650 5647 5646 5644 5642 5642 5641 5639 5637 5635 5634 5633 5631 5630 5628 5627 5625 5624 5623 5622 5621 5619 5618 5617 5615 5613 5611 5609 5607 5605 5603 5601 5599 5596 5594 5592
5653 5650 5650 5651 5648 5646 5646 5645 5641 5639 5637 5635 5633 5632 5631 5629 5628 5626 5625 5623 5622 5620 5619 5617 5615 5614 5613 5611 5610 5609 5607 5606 5604 5602 5600 5598 5596 5593 5591 5589 5587 5585 5583 5580
5644 5642 5643 5640 5638 5637 5635 5633 5630 5628 5627 5625 5623 5622 5620 5619 5617 5616 5614 5613 5611 5609 5608 5607 5605 5603 5602 5601 5599 5597 5596 5595 5593 5591 5589 5587 5585 5582 5580 5578 5575 5573 5570 5567
5634 5634 5631 5629 5627 5625 5624 5622 5620 5618 5616 5613 5612 5610 5609 5608 5606 5605 5603 5602 5600 5598 5597 5595 5594 5592 5591 5589 5587 5586 5585 5583 5582 5580 5577 5575 5573 5571 5568 5566 5563 5560 5557 5555
5622 5622 5620 5618 5616 5614 5612 5610 5608 5606 5604 5602 5600 5599 5597 5596 5594 5593 5591 5590 5588 5587 5585 5584 5582 5580 5578 5577 5575 5574 5573 5571 5569 5568 5566 5563 5561 5559 5556 5553 5550 5547 5544 5541
5610 5609 5608 5606 5604 5602 5600 5598 5596 5594 5592 5590 5588 5586 5585 5583 5582 5580 5579 5578 5576 5574 5573 5572 5570 5568 5566 5565 5563 5562 5560 5559 5557 5556 5554 5551 5549 5547 5544 5541 5537 5534 5531 5528
5598 5597 5594 5594 5592 5589 5587 5585 5583 5581 5580 5578 5575 5574 5572 5571 5569 5568 5566 5565 5563 5562 5560 5559 5557 5556 5554 5552 5551 5549 5548 5546 5545 5543 5541 5539 5537 5534 5531 5528 5524 5521 5517 5514
5583 5582 5581 5580 5578 5576 5574 5572 5570 5568 5567 5565 5563 5561 5559 5558 5556 5555 5553 5552 5550 5549 5547 5546 5544 5543 5541 5539 5538 5537 5535 5534 5532 5531 5529 5526 5524 5522 5519 5516 5512 5508 5504 5501
5569 5568 5567 5566 5565 5563 5561 5559 5558 5556 5554 5552 5550 5548 5546 5545 5543 5542 5540 5539 5537 5536 5535 5533 5532 5530 5528 5526 5525 5524 5522 5521 5519 5518 5516 5513 5511 5508 5506 5503 5500 5496 5492 5488
5556 5554 5553 5552 5551 5549 5547 5546 5544 5543 5541 5539 5537 5535 5533 5532 5530 5529 5527 5526 5524 5523 5522 5520 5519 5517 5515 5514 5512 5511 5509 5508 5506 5505 5503 5500 5498 5495 5492 5490 5487 5483 5480 5476
5542 5541 5539 5539 5537 5536 5534 5533 5531 5530 5528 5526 5524 5522 5520 5519 5517 5516 5514 5513 5511 5510 5508 5507 5506 5504 5502 5501 5499 5498 5496 5495 5493 5491 5489 5487 5485 5482 5480 5477 5473 5470 5467 5463
5528 5528 5526 5525 5524 5522 5521 5519 5518 5516 5515 5513 5511 5509 5508 5506 5505 5503 5501 5499 5498 5496 5495 5493 5492 5490 5489 5488 5486 5485 5484 5482 5480 5478 5476 5474 5472 5469 5467 5464 5461 5458 5454 5451
5515 5514 5513 5512 5511 5509 5508 5506 5505 5503 5502 5500 5498 5497 5495 5493 5492 5490 5488 5486 5485 5483 5482 5480 5479 5477 5476 5475 5473 5472 5471 5469 5468 5466 5464 5462 5459 5457 5454 5451 5448 5445 5442 5439
5502 5501 5500 5499 5498 5497 5495 5494 5493 5491 5489 5487 5486 5484 5483 5481 5479 5477 5475 5473 5472 5470 5469 5467 5466 5465 5464 5462 5461 5460 5459 5457 5456 5454 5452 5449 5447 5444 5441 5439 5436 5433 5430 5427
5490 5489 5488 5487 5486 5485 5484 5482 5481 5479 5477 5475 5474 5472 5470 5468 5466 5464 5462 5461 5459 5457 5456 5455 5454 5453 5452 5451 5450 5448 5447 5445 5444 5442 5440 5437 5434 5432 5429 5426 5423 5420 5418 5415
5479 5478 5477 5476 5475 5473 5472 5470 5469 5467 5466 5464 5462 5460 5458 5456 5454 5452 5450 5449 5447 5445 5444 5443 5442 5441 5440 5439 5438 5437 5435 5434 5432 5430 5427 5425 5422 5420 5417 5414 5411 5408 5405 5402
5468 5467 5466 5465 5464 5462 5461 5459 5457 5456 5454 5452 5450 5447 5446 5444 5442 5441 5439 5438 5436 5434 5433 5432 5431 5430 5429 5428 5426 5425 5423 5421 5419 5417 5415 5413 5410 5407 5404 5402 5399 5396 5393 5389
5457 5456 5455 5454 5453 5452 5450 5448 5446 5445 5443 5440 5438 5436 5434 5433 5431 5430 5428 5427 5424 5423 5422 5421 5420 5418 5417 5416 5415 5413 5412 5410 5407 5405 5403 5400 5397 5395 5392 5389 5386 5383 5380 5377
5446 5446 5445 5444 5442 5441 5440 5438 5436 5434 5432 5430 5427 5425 5423 5422 5420 5419 5417 5416 5414 5413 5411 5410 5409 5408 5406 5405 5403 5402 5400 5398 5395 5393 5390 5388 5385 5382 5379 5377 5374 5371 5368 5365
5436 5435 5434 5433 5432 5430 5429 5427 5426 5424 5421 5419 5417 5415 5413 5411 5410 5408 5407 5405 5404 5402 5401 5400 5398 5397 5395 5393 5392 5390 5388 5386 5383 5381 5378 5375 5373 5370 5367 5365 5362 5359 5357 5354
5425 5425 5424 5422 5421 5420 5418 5417 5415 5414 5411 5409 5408 5405 5403 5401 5400 5398 5397 5395 5394 5392 5391 5389 5387 5386 5384 5382 5380 5378 5376 5374 5371 5369 5366 5363 5361 5358 5356 5353 5351 5348 5345 5343
5415 5414 5413 5412 5411 5409 5408 5407 5405 5403 5401 5399 5398 5396 5394 5392 5390 5388 5387 5385 5383 5382 5380 5379 5377 5375 5373 5371 5369 5367 5365 5362 5360 5357 5354 5352 5349 5347 5345 5342 5340 5337 5335 5332
Wind_Speed
20 20 19 18 18 18 18 19 19 18 17 16 16 16 16 16 16 17 19 20 22 23 25 26 27 28 29 31 32 33 33 34 35 36 36 37 37 38 39 40 40 41 42 42
21 21 21 20 19 19 19 20 20 20 19 19 19 18 18 19 19 19 20 22 23 24 25 27 28 29 30 31 32 33 34 35 36 36 37 37 38 39 39 40 40 41 42 42
23 22 22 21 20 21 22 22 22 22 21 21 21 21 21 21 22 22 23 24 25 26 26 27 29 30 31 32 33 34 34 35 36 36 37 38 39 39 40 40 41 42 42 42
25 24 24 22 22 23 24 23 23 23 23 23 23 23 23 24 24 24 25 26 27 28 29 29 29 30 31 32 32 33 34 35 36 37 38 39 39 39 40 40 41 41 42 43
28 27 26 24 25 25 25 25 25 25 26 26 25 25 26 26 27 27 27 28 29 29 29 30 30 31 32 32 33 33 34 35 36 37 38 39 39 39 39 40 40 41 42 43
30 30 30 28 28 27 28 28 28 28 28 29 29 29 28 29 29 29 30 30 31 31 31 31 31 32 33 33 34 34 35 36 36 37 37 38 38 39 39 40 40 41 41 42
31 32 32 31 30 30 31 31 31 31 31 31 31 32 31 31 31 32 32 32 32 32 32 33 33 33 34 35 36 36 37 37 37 37 38 38 38 39 39 40 41 41 42 43
34 34 34 33 33 33 33 34 34 34 34 34 34 34 34 34 34 34 34 34 34 34 35 35 36 36 36 36 37 37 38 38 38 38 38 39 39 39 40 40 41 42 43 43
36 36 36 36 36 36 36 36 37 37 37 37 36 36 36 36 36 36 36 37 37 37 37 36 37 37 37 37 38 38 39 39 39 39 39 39 39 40 41 41 42 43 44 44
38 37 37 38 38 38 39 39 39 39 38 38 38 38 38 38 38 38 38 38 38 38 37 37 37 38 38 38 38 38 39 39 39 40 40 40 40 41 41 42 43 44 45 45
41 40 41 40 40 41 41 41 41 41 40 40 39 39 39 39 39 40 40 40 39 39 39 39 39 39 39 39 39 39 39 39 40 40 40 41 41 41 42 42 43 44 45 46
42 42 43 42 42 42 42 42 42 42 41 40 40 40 40 40 41 41 41 41 41 40 40 39 39 39 39 40 40 40 40 40 40 41 41 42 43 43 43 43 44 44 45 46
44 43 44 44 43 43 43 43 42 42 42 41 41 41 41 41 41 41 41 41 41 40 40 39 39 39 39 40 40 40 41 41 41 41 42 42 43 43 43 43 43 44 45 46
44 45 45 44 44 44 44 43 42 42 42 42 42 41 41 41 42 42 41 41 41 41 40 39 39 39 40 40 41 41 41 41 41 42 42 42 42 43 43 43 43 43 44 45
45 45 45 44 44 44 43 43 43 42 42 42 42 42 42 42 42 41 41 41 41 41 40 40 39 39 40 40 41 41 42 41 42 42 42 42 42 42 43 43 43 43 43 43
44 44 44 44 43 43 43 43 42 42 42 42 42 42 42 42 41 41 41 41 41 41 41 41 40 40 41 41 41 41 41 41 41 41 41 41 42 42 42 43 43 43 43 42
42 42 43 43 42 42 42 42 42 41 41 41 40 40 40 40 40 40 40 40 41 41 41 41 41 41 41 41 41 40 40 40 40 41 41 41 41 42 42 42 42 42 42 41
41 41 41 41 40 40 40 40 39 39 39 39 39 39 39 39 40 40 40 40 40 40 40 40 40 39 39 39 39 39 39 38 39 40 40 40 40 41 41 41 41 41 41 41
38 39 39 39 39 38 38 38 38 38 38 39 38 38 38 39 40 40 40 39 39 39 39 39 38 38 38 37 37 37 37 37 37 38 39 39 40 40 40 41 41 41 41 41
37 37 37 37 37 37 38 38 38 38 38 38 38 38 38 38 38 38 38 38 38 37 37 36 36 36 36 36 36 36 36 36 37 37 38 39 39 40 40 41 40 40 40 41
36 36 36 36 36 36 37 37 37 37 37 38 38 37 37 36 36 36 35 35 35 35 35 35 35 35 35 35 35 35 36 36 37 38 39 39 40 40 40 41 41 41 41 41
34 34 34 34 34 35 35 36 36 36 36 36 36 36 36 35 34 34 34 34 34 34 34 34 34 34 34 34 35 35 36 37 38 38 39 39 39 40 40 40 40 40 41 41
33 33 33 33 34 34 34 35 35 35 35 35 35 35 34 34 34 34 33 33 33 33 33 33 33 33 33 34 35 36 36 37 38 38 39 39 39 39 40 39 39 39 39 39
34 33 33 33 33 34 34 34 34 34 34 34 34 34 34 33 33 33 33 33 32 32 32 32 33 34 34 35 35 36 36 37 37 38 38 38 39 39 38 38 37 37 38 38
33 33 33 33 33 32 32 32 32 32 32 32 32 31 31 31 30 31 31 31 31 32 32 32 33 34 34 34 34 35 36 36 37 37 37 37 37 37 36 36 36 36 36 36
33 33 33 32 32 32 32 32 32 32 32 31 30 30 30 30 30 31 30 31 31 32 32 32 33 33 33 33 34 34 35 35 35 36 36 36 36 35 35 34 34 34 34 34
31 32 32 33 33 33 33 33 33 32 32 31 31 31 31 31 32 32 31 31 31 32 32 32 31 31 32 33 33 34 34 35 35 35 35 34 34 33 33 33 32 32 32 31
Wind_Direction
305 305 305 305 303 302 303 303 301 300 295 292 289 287 285 282 279 278 275 272 271 268 267 266 265 264 264 264 265 267 268 268 269 271 273 274 275 275 275 275 276 277 277 277
301 302 301 301 301 300 300 300 299 298 295 293 290 288 286 284 282 279 277 275 273 272 270 269 268 267 267 267 267 268 269 270 271 273 275 275 275 275 275 275 276 277 277 277
297 298 298 299 299 297 298 299 298 296 295 292 289 287 285 283 281 279 278 277 277 276 275 274 272 271 270 270 270 270 271 272 274 275 277 276 276 276 275 275 276 277 277 277
294 295 295 299 297 296 296 297 295 294 293 291 288 286 285 283 282 280 279 277 277 277 277 277 276 274 273 273 273 274 274 275 276 277 278 278 278 277 277 276 276 277 277 278
292 292 293 294 294 294 294 294 294 293 292 290 288 286 285 283 281 280 280 279 278 277 277 277 277 276 274 273 273 274 276 277 278 278 279 279 279 278 277 277 277 278 278 279
291 291 292 294 292 292 292 292 292 292 290 288 286 284 283 281 281 281 281 281 280 279 278 277 278 277 276 275 274 275 277 278 278 279 280 280 279 278 278 278 278 278 279 280
287 288 289 291 290 290 290 292 291 291 289 286 285 284 283 280 280 280 281 281 281 279 278 277 277 277 277 276 276 276 277 278 278 279 280 281 281 280 280 279 279 280 280 281
283 284 287 287 287 288 289 290 290 289 288 286 285 283 282 280 280 280 280 280 280 280 279 277 277 277 277 277 277 277 277 277 278 279 280 281 281 281 281 281 282 282 282 283
282 283 284 284 284 285 287 288 288 287 287 286 284 282 280 280 280 280 280 280 280 280 279 278 277 278 278 277 277 277 277 277 278 279 280 281 282 283 283 283 284 285 285 285
280 281 281 282 283 285 286 287 287 286 286 285 283 281 279 279 279 280 281 281 280 280 279 278 278 278 278 277 278 277 277 278 279 279 280 282 283 284 285 285 285 286 286 287
278 279 279 281 282 284 286 286 286 286 285 284 282 281 280 280 279 280 280 280 280 281 281 280 278 278 278 277 277 277 278 279 279 279 280 281 283 285 286 286 287 287 287 287
277 277 278 280 281 282 283 284 284 284 283 282 281 281 281 281 280 280 281 281 281 281 281 280 279 278 278 277 277 276 276 277 278 279 281 282 284 285 286 287 288 288 289 289
275 276 278 280 280 281 282 283 283 283 282 281 280 280 281 281 281 281 281 281 280 280 280 280 280 279 278 278 277 276 276 277 278 279 281 283 284 285 286 287 289 290 290 290
275 276 277 278 279 280 280 281 281 281 281 282 281 281 282 282 281 281 281 281 280 280 280 279 279 278 278 278 277 275 275 277 278 280 281 283 285 286 286 287 288 289 290 291
274 275 277 278 278 278 278 279 280 280 280 281 282 282 282 282 282 281 281 280 280 279 279 279 279 278 277 278 278 277 276 277 279 280 282 283 285 286 287 287 288 289 290 290
273 274 275 276 276 277 277 278 280 280 280 281 281 282 282 282 281 281 281 281 280 279 278 278 278 278 277 277 278 278 277 278 279 280 281 283 284 286 287 288 288 289 290 290
273 274 274 275 276 277 277 279 280 280 280 281 281 282 282 282 282 281 281 281 279 279 278 278 278 278 277 277 277 277 278 279 279 281 282 284 285 286 287 288 289 290 290 290
273 274 275 276 277 277 278 278 280 281 281 282 282 283 283 283 283 282 282 280 279 279 279 278 278 278 279 278 277 277 278 279 280 282 283 284 285 286 287 288 288 288 289 289
273 274 275 276 277 277 278 278 280 281 282 283 283 284 284 285 285 283 282 281 280 279 279 278 278 278 278 278 278 279 279 279 281 283 284 285 286 287 287 288 288 288 288 288
273 274 275 276 276 276 277 279 280 281 282 283 284 285 285 286 285 284 281 281 281 280 278 278 277 277 277 278 279 280 280 281 283 285 286 286 286 287 287 287 287 287 287 287
273 275 276 277 278 279 279 280 281 282 284 284 285 286 286 285 284 283 281 281 281 280 279 278 277 277 277 278 279 280 281 282 283 285 286 286 287 287 287 287 287 287 287 288
275 276 278 279 280 281 281 282 282 284 285 286 286 286 286 285 284 282 282 282 282 281 279 277 277 278 279 279 280 281 282 283 284 286 287 287 288 288 288 288 288 288 288 288
275 276 277 279 281 282 282 283 283 285 286 286 286 286 286 285 284 283 283 283 283 281 280 278 277 278 279 280 281 282 283 285 286 287 288 288 289 289 289 288 288 288 288 288
274 276 278 280 282 283 283 284 284 285 286 287 287 286 286 284 283 283 283 284 283 282 281 279 279 280 281 282 283 283 284 286 287 289 289 289 289 289 288 288 288 288 289 289
275 277 280 281 282 283 284 285 286 288 289 289 288 287 286 285 285 285 284 283 283 283 283 282 282 282 283 283 284 285 286 287 288 289 289 289 289 288 288 288 289 289 290 290
276 277 279 281 283 283 284 286 288 289 290 290 288 287 287 286 286 286 285 284 284 284 285 285 285 285 285 285 286 287 288 289 290 290 289 289 288 288 288 289 289 290 291 291
277 279 280 281 282 282 284 286 287 289 289 288 286 286 286 286 286 285 285 285 285 286 286 286 286 286 287 288 288 289 290 290 290 290 290 290 289 289 289 289 290 291 292 292